Погода в Ефаеве

Россия / Республика Мордовия     54°18′05″N   43°46′06″E
темп.,
°C
ветер,
м/с
пор.,
м/с
влажн.,
%
обл.,
%
осадки,
мм/ч
давл.,
гПа
погр.,
м
20 апреля, вт
вт2000:00+5в6126898 0.0 1023672
03:00+4в61268100 0.0 1023646
06:00+3в6126998 0.0 1023638
09:00+5вюв71264100 0.0 1023871
12:00+6вюв81363100 0.0 1022975
15:00+5вюв71476100 0.8 1021975
18:00+5вюв81675100 1.1 1019947
21:00+5вюв91981100 2.8 1017992
21 апреля, ср
ср2100:00+4вюв112389100 7.4 10131133
03:00+5юв112186100 11.1 10111113
06:00+6юв111985100 0.1 10101023
09:00+7ююв10198278 0.1 1010874
12:00+7ююв101687100 0.2 10101024
15:00+8ююв91587100 0.3 1010922
18:00+7юз81190100 0.9 1012962
21:00+6юз4989100 1.1 1016844
22 апреля, чт
чт2200:00+6ююз3891100 0.1 1017286
03:00+5ююв2493100 0.2 1017106
06:00+5ю389620 0.1 1018226
09:00+9ююз6877100 0.2 10191121
12:00+11ююз796759 2.7 10191455
15:00+12зюз585596 2.9 10201926
18:00+11з35675 0.0 1021167
21:00+7з11792 0.0 102210
23 апреля, пт
пт2300:00+6ююв33845 0.0 102245
03:00+5ююв37865 0.0 1022103
06:00+6ююв31082100 0.0 1023186
09:00+11ю476584 0.0 1023327
12:00+16ююз454627 0.0 10221693
15:00+15ю3551100 0.0 1021914
18:00+13юв3664100 0.0 1020123
21:00+11ю226844 0.0 102024
24 апреля, сб
сб2400:00+8ююв227612 0.0 101925
03:00+8ююв227826 0.0 101731
06:00+7юв368231 0.0 1016126
09:00+13ююв47568 0.0 1014616
12:00+16ююв554370 0.0 10122128
15:00+15ююв574594 0.0 10102022
18:00+11ю51079100 1.0 1009598
21:00+10ююв3787100 3.9 1007355